Weather in Mishlesh

Russia / Republic of Dagestan     41°39′53″N   47°05′23″E
temp.,
°C
wind,
m/s
gust,
m/s
humid.,
%
clouds,
%
prec.,
mm/h
press.,
hPa
HPBL,
m
15 may, sat
sat1500:00+4wnw21910 0.0 102210
03:00+3nnw22900 0.0 102111
06:00+6n11710 0.0 102146
09:00+10sw22580 0.0 1019870
12:00+12sw33545 0.3 10181356
15:00+11sw326919 2.3 1018563
18:00+8s227820 3.9 1019191
21:00+5wnw119354 4.7 102110
16 may, sun
sun1600:00+4n229213 0.0 102019
03:00+3nnw118832 0.0 101911
06:00+6nw11750 0.0 101971
09:00+9sw32560 0.0 1017841
12:00+12sw33390 0.0 10161262
15:00+11sw33471 0.0 10151168
18:00+9sw22540 0.0 1016532
21:00+4nw11652 0.0 101811
17 may, mon
mon1700:00+4nnw22475 0.0 101711
03:00+4nnw224990 0.0 101611
06:00+8nnw115047 0.0 101539
09:00+12sw334214 0.0 1013896
12:00+14sw473551 0.0 10131919
15:00+14sw36330 0.0 10121868
18:00+11sw555427 0.1 1014215
21:00+7ne3284100 0.4 1017107
18 may, tue
tue1800:00+6ne2160100 0.1 101412
03:00+5ene116239 0.1 101211
06:00+9ne2257100 0.1 101240
09:00+11ssw3355100 0.5 1011533
12:00+11sw455314 2.8 10111081
15:00+10sw445797 6.7 1012830
18:00+8sse226246 4.0 1013368
21:00+3nne3389100 8.3 1019155
19 may, wed
wed1900:00+4ne007789 0.1 101711
03:00+3nnw11795 0.1 101611
06:00+6ne21690 0.0 101794
09:00+9sw32460 0.0 10171134
12:00+12sw43475 0.0 10161592
15:00+11sw326259 0.2 10161001
18:00+9wsw226912 0.2 1018548
21:00+6w11801 0.1 102020